• In Hungary
  • List of Countries
  • For 7 days
  • Water Temperature
  • Satellite Maps
  • Weather Map
  • News
  • Weather Widgets
  • user-avatar
    Login

    Hourly Weather Prizren

    Today, 18 December, Monday

    Time Temperature Precipitation Wind Pressure Humidity
    00:00 -3°C° 0.2 mm 2 mps 698 mmHg 89%
    01:00 -3°C° 0.2 mm 2 mps 698 mmHg 88%
    02:00 -3°C° 0.5 mm 2 mps 698 mmHg 89%
    03:00 -3°C° 0.5 mm 2 mps 698 mmHg 90%
    04:00 -4°C° 0.5 mm 2 mps 698 mmHg 90%
    05:00 -4°C° 0.7 mm 2 mps 698 mmHg 90%
    06:00 -4°C° 0.7 mm 2 mps 699 mmHg 90%
    07:00 -4°C° 0.7 mm 2 mps 699 mmHg 90%
    08:00 -3°C° 0.1 mm 2 mps 699 mmHg 87%
    09:00 -2°C° 0.1 mm 2 mps 699 mmHg 84%
    10:00 -2°C° 0.1 mm 2 mps 699 mmHg 81%
    11:00 -2°C° 0.1 mm 2 mps 699 mmHg 80%
    12:00 -1°C° 0.1 mm 2 mps 699 mmHg 79%
    13:00 -1°C° 0.1 mm 2 mps 699 mmHg 78%
    14:00 -2°C° 0.1 mm 2 mps 699 mmHg 80%
    15:00 -2°C° 0.1 mm 2 mps 699 mmHg 83%
    16:00 -3°C° 0.1 mm 2 mps 699 mmHg 85%
    17:00 -3°C° 0.2 mm 2 mps 699 mmHg 86%
    18:00 -4°C° 0.2 mm 2 mps 700 mmHg 87%
    19:00 -4°C° 0.2 mm 2 mps 700 mmHg 88%
    20:00 -4°C° 0.1 mm 2 mps 700 mmHg 89%
    21:00 -5°C° 0.1 mm 2 mps 701 mmHg 89%
    22:00 -3°C° 0.1 mm 1 mps 701 mmHg 89%
    23:00 -3°C° 0.1 mm 1 mps 701 mmHg 88%

    Tomorrow, 19 December, Tuesday

    Time Temperature Precipitation Wind Pressure Humidity
    00:00 -3°C° 0.1 mm 1 mps 702 mmHg 88%
    01:00 -3°C° 0.1 mm 1 mps 702 mmHg 87%
    02:00 -3°C° 0 mm 1 mps 702 mmHg 87%
    03:00 -3°C° 0 mm 1 mps 703 mmHg 87%
    04:00 -3°C° 0 mm 1 mps 703 mmHg 87%
    05:00 -4°C° 0 mm 1 mps 703 mmHg 87%
    06:00 -4°C° 0 mm 1 mps 704 mmHg 86%
    07:00 -4°C° 0 mm 1 mps 704 mmHg 85%
    08:00 -3°C° 0 mm 1 mps 705 mmHg 81%
    09:00 -4°C° 0 mm 2 mps 705 mmHg 77%
    10:00 -3°C° 0 mm 2 mps 706 mmHg 72%
    11:00 -3°C° 0 mm 2 mps 706 mmHg 71%
    12:00 -2°C° 0 mm 2 mps 706 mmHg 70%
    13:00 -2°C° 0 mm 2 mps 706 mmHg 68%
    14:00 -3°C° 0 mm 2 mps 706 mmHg 72%
    15:00 -3°C° 0 mm 2 mps 706 mmHg 76%
    16:00 -2°C° 0 mm 1 mps 706 mmHg 80%
    17:00 -3°C° 0 mm 1 mps 706 mmHg 82%
    18:00 -3°C° 0 mm 1 mps 706 mmHg 84%
    19:00 -4°C° 0 mm 1 mps 707 mmHg 85%
    20:00 -6°C° 0 mm 2 mps 707 mmHg 86%
    21:00 -6°C° 0 mm 2 mps 707 mmHg 86%
    22:00 -6°C° 0 mm 2 mps 708 mmHg 87%
    23:00 -6°C° 0 mm 2 mps 707 mmHg 87%

    Day after tomorrow, 20 December, Wednesday

    Time Temperature Precipitation Wind Pressure Humidity
    00:00 -7°C° 0 mm 2 mps 707 mmHg 87%
    01:00 -6°C° 0 mm 1 mps 707 mmHg 87%
    02:00 -6°C° 0 mm 1 mps 707 mmHg 87%
    03:00 -6°C° 0 mm 1 mps 707 mmHg 87%
    04:00 -7°C° 0 mm 1 mps 707 mmHg 87%
    05:00 -7°C° 0 mm 1 mps 707 mmHg 86%
    06:00 -7°C° 0 mm 1 mps 707 mmHg 85%
    07:00 -7°C° 0 mm 1 mps 707 mmHg 85%
    08:00 -7°C° 0 mm 2 mps 708 mmHg 81%
    09:00 -5°C° 0 mm 2 mps 708 mmHg 78%
    10:00 -4°C° 0 mm 2 mps 708 mmHg 74%
    11:00 -4°C° 0 mm 2 mps 708 mmHg 73%
    12:00 -3°C° 0 mm 2 mps 707 mmHg 71%
    13:00 -3°C° 0 mm 2 mps 707 mmHg 69%
    14:00 -4°C° 0 mm 2 mps 707 mmHg 73%
    15:00 -3°C° 0 mm 1 mps 707 mmHg 76%
    16:00 -4°C° 0 mm 1 mps 706 mmHg 80%
    17:00 -4°C° 0 mm 1 mps 707 mmHg 80%
    18:00 -6°C° 0 mm 1 mps 707 mmHg 81%
    19:00 -6°C° 0 mm 1 mps 707 mmHg 82%
    20:00 -7°C° 0 mm 1 mps 707 mmHg 81%
    21:00 -7°C° 0 mm 1 mps 707 mmHg 81%
    22:00 -7°C° 0 mm 1 mps 707 mmHg 81%
    23:00 -7°C° 0 mm 1 mps 707 mmHg 80%

    21 December, Thursday

    Time Temperature Precipitation Wind Pressure Humidity
    00:00 -7°C° 0 mm 1 mps 707 mmHg 80%
    01:00 -7°C° 0 mm 1 mps 707 mmHg 79%
    02:00 -7°C° 0 mm 1 mps 707 mmHg 79%
    03:00 -7°C° 0 mm 1 mps 707 mmHg 79%
    04:00 -7°C° 0 mm 1 mps 707 mmHg 79%
    05:00 -8°C° 0 mm 1 mps 707 mmHg 78%
    06:00 -8°C° 0 mm 1 mps 707 mmHg 78%
    07:00 -8°C° 0 mm 1 mps 708 mmHg 78%
    08:00 -6°C° 0 mm 1 mps 708 mmHg 75%
    09:00 -4°C° 0 mm 1 mps 708 mmHg 71%
    10:00 -2°C° 0 mm 1 mps 709 mmHg 68%
    11:00 -1°C° 0 mm 1 mps 708 mmHg 65%
    12:00 -1°C° 0 mm 1 mps 708 mmHg 63%
    13:00 0°C° 0 mm 1 mps 708 mmHg 61%
    14:00 -1°C° 0 mm 1 mps 708 mmHg 65%
    15:00 -2°C° 0 mm 1 mps 707 mmHg 68%
    16:00 -3°C° 0 mm 1 mps 707 mmHg 72%
    17:00 -4°C° 0 mm 1 mps 708 mmHg 71%
    18:00 -4°C° 0 mm 1 mps 708 mmHg 70%
    19:00 -6°C° 0 mm 1 mps 708 mmHg 69%
    20:00 -6°C° 0 mm 1 mps 708 mmHg 67%
    21:00 -6°C° 0 mm 1 mps 708 mmHg 66%
    22:00 -6°C° 0 mm 1 mps 708 mmHg 65%
    23:00 -4°C° 0 mm 1 mps 708 mmHg 63%

    22 December, Friday

    Time Temperature Precipitation Wind Pressure Humidity
    00:00 -4°C° 0 mm 1 mps 708 mmHg 62%
    01:00 -4°C° 0 mm 1 mps 708 mmHg 61%
    02:00 -4°C° 0 mm 1 mps 708 mmHg 60%
    03:00 -4°C° 0 mm 1 mps 707 mmHg 59%
    04:00 -3°C° 0 mm 1 mps 707 mmHg 58%
    05:00 -3°C° 0 mm 1 mps 707 mmHg 56%
    06:00 -3°C° 0 mm 1 mps 707 mmHg 55%
    07:00 -2°C° 0 mm 1 mps 707 mmHg 54%
    08:00 0°C° 0 mm 1 mps 707 mmHg 57%
    09:00 +2°C° 0 mm 1 mps 707 mmHg 60%
    10:00 +4°C° 0 mm 1 mps 707 mmHg 64%
    11:00 +4°C° 0 mm 1 mps 707 mmHg 67%
    12:00 +5°C° 0 mm 1 mps 706 mmHg 70%
    13:00 +6°C° 0 mm 1 mps 706 mmHg 73%
    14:00 +5°C° 0 mm 1 mps 706 mmHg 74%
    15:00 +4°C° 0 mm 1 mps 706 mmHg 76%
    16:00 +4°C° 0 mm 1 mps 705 mmHg 78%
    17:00 +3°C° 0 mm 1 mps 706 mmHg 80%
    18:00 +2°C° 0 mm 2 mps 706 mmHg 83%
    19:00 +1°C° 0 mm 2 mps 706 mmHg 85%
    20:00 +1°C° 0 mm 2 mps 706 mmHg 86%
    21:00 -1°C° 0 mm 2 mps 706 mmHg 86%
    22:00 -2°C° 0 mm 2 mps 706 mmHg 86%
    23:00 0°C° 0 mm 1 mps 706 mmHg 85%

    23 December, Saturday

    Time Temperature Precipitation Wind Pressure Humidity
    00:00 -1°C° 0 mm 1 mps 706 mmHg 83%
    01:00 -1°C° 0 mm 1 mps 706 mmHg 82%
    02:00 -2°C° 0 mm 1 mps 705 mmHg 81%
    03:00 -2°C° 0 mm 1 mps 705 mmHg 81%
    04:00 -2°C° 0 mm 1 mps 705 mmHg 80%
    05:00 -2°C° 0 mm 1 mps 704 mmHg 78%
    06:00 -2°C° 0 mm 1 mps 704 mmHg 77%
    07:00 -2°C° 0 mm 1 mps 704 mmHg 75%
    08:00 -1°C° 0 mm 1 mps 704 mmHg 71%
    09:00 +1°C° 0 mm 1 mps 703 mmHg 67%
    10:00 +3°C° 0 mm 1 mps 703 mmHg 63%
    11:00 +3°C° 0 mm 1 mps 703 mmHg 63%
    12:00 +4°C° 0 mm 1 mps 702 mmHg 63%
    13:00 +5°C° 0 mm 1 mps 701 mmHg 62%
    14:00 +4°C° 0.1 mm 1 mps 701 mmHg 64%
    15:00 +3°C° 0.1 mm 1 mps 700 mmHg 66%
    16:00 +2°C° 0.1 mm 1 mps 700 mmHg 68%
    17:00 +2°C° 0.1 mm 1 mps 700 mmHg 71%
    18:00 +2°C° 0.1 mm 1 mps 700 mmHg 74%
    19:00 +1°C° 0.1 mm 1 mps 700 mmHg 77%
    20:00 +1°C° 0.1 mm 1 mps 700 mmHg 78%
    21:00 +1°C° 0.1 mm 1 mps 700 mmHg 80%
    22:00 0°C° 0.1 mm 1 mps 701 mmHg 81%
    23:00 -3°C° 0.1 mm 2 mps 701 mmHg 80%
    Show more